Location: OHP
(43.9325°N, 5.7154°E)
Time: 23:02:20
(UTC+01:00)

X-37B - Visible Passes

Search period start: 19 June 2021 00:00
Search period end: 29 June 2021 00:00
Orbit: 386 x 389 km, 45.0° (Epoch: 10 June)

Date Brightness Start Highest point End Pass type
(mag) Time Alt. Az. Time Alt. Az. Time Alt. Az.
19 Jun 0.8 02:24:37 34° WNW 02:25:49 69° N 02:28:59 10° E visible
19 Jun 0.5 03:59:21 10° W 04:02:30 65° SSW 04:05:39 10° ESE visible
20 Jun 2.1 01:28:46 31° ENE 01:28:46 31° ENE 01:30:36 10° E visible
20 Jun 0.5 03:01:04 11° WNW 03:04:09 89° S 03:07:20 10° ESE visible
21 Jun 0.7 02:05:32 69° NW 02:05:46 75° N 02:08:57 10° E visible
21 Jun 1.0 03:39:19 10° W 03:42:19 41° SSW 03:45:20 10° SE visible
22 Jun 0.4 02:43:03 38° W 02:44:02 64° SSW 02:47:11 10° ESE visible
22 Jun 1.5 22:29:19 10° SW 22:31:22 32° SSW 22:31:22 32° SSW visible
23 Jun 1.6 03:22:08 25° SSW 03:22:08 25° SSW 03:24:46 10° SSE visible
23 Jun 1.5 21:31:19 10° SSW 21:34:07 28° SSE 21:36:55 10° E visible
23 Jun 0.7 23:07:23 10° W 23:10:09 64° W 23:10:09 64° W visible
24 Jun 0.4 22:09:03 10° WSW 22:12:12 70° SSE 22:15:11 11° E visible
24 Jun 2.2 23:45:43 10° W 23:47:29 30° WNW 23:47:29 30° WNW visible
25 Jun 0.9 21:10:50 10° SW 21:13:54 46° SSE 21:16:58 10° E visible
25 Jun 0.7 22:47:19 10° W 22:50:29 73° N 22:51:53 30° ENE visible
26 Jun 3.5 00:24:02 10° WNW 00:24:10 11° WNW 00:24:10 11° WNW visible
26 Jun 0.6 21:48:55 10° W 21:52:06 86° NNW 21:55:17 10° ENE visible
26 Jun 1.1 23:25:39 10° W 23:28:17 56° WNW 23:28:17 56° WNW visible
27 Jun 0.8 22:27:15 10° W 22:30:26 69° N 22:32:17 22° E visible
28 Jun 3.2 00:03:57 10° W 00:04:33 15° W 00:04:33 15° W visible
28 Jun 0.8 21:28:50 10° W 21:32:01 73° N 21:35:12 10° E visible
28 Jun 0.6 23:05:34 10° WNW 23:08:30 74° W 23:08:30 74° W visible
